Wind_Speed
38 35 32 32 30 29 30 32 34 32 31 32 30 29 31 32 32 39 34 36 34 32 32 31 32 35 38 42 40 40 41 40 42 43 42 38 36 36 35 32 29 29 26 25 25 26 28
36 35 35 35 36 35 36 35 35 34 37 35 35 34 32 33 34 34 37 33 35 32 32 30 31 33 35 39 39 40 40 39 41 41 39 37 35 35 33 31 31 28 25 24 23 25 27
39 39 39 39 39 39 38 37 37 36 37 38 41 40 38 35 35 36 35 34 36 33 33 31 31 33 33 38 37 37 38 37 38 40 38 37 36 35 33 33 32 30 27 25 23 24 25
43 43 44 45 45 44 45 44 42 43 44 44 47 45 44 43 38 39 37 37 36 33 34 32 32 31 31 34 35 36 38 38 37 37 36 36 35 34 33 34 33 32 29 26 24 25 27
44 45 47 47 45 47 48 48 50 53 55 54 56 54 51 48 42 40 40 37 35 36 35 34 31 30 29 30 32 34 35 35 35 35 35 34 33 33 33 33 32 30 30 29 30 30 30
47 47 49 49 50 50 54 56 61 64 68 72 64 57 56 53 50 46 43 41 39 38 37 35 31 29 28 26 28 30 32 33 33 33 32 32 31 30 29 28 29 29 29 29 30 30 32
51 50 50 50 53 58 63 71 78 81 75 64 58 48 49 53 56 53 45 46 47 40 37 34 33 31 28 26 26 28 30 30 30 29 27 28 27 24 25 26 26 27 30 33 34 34 37
55 54 52 55 61 68 74 81 81 70 63 58 52 48 44 54 60 50 50 50 43 37 37 38 36 32 30 27 25 26 27 26 24 24 25 25 25 25 22 23 27 29 31 34 38 40 41
60 58 59 65 71 78 86 75 66 61 50 40 33 32 42 54 61 60 56 52 44 38 38 40 39 35 32 30 26 25 24 23 22 22 23 24 24 22 24 26 30 32 36 40 44 47 49
65 63 67 73 80 88 77 64 55 45 33 19 17 23 40 51 55 59 55 52 40 41 32 40 39 37 34 31 28 26 24 23 23 24 23 23 25 26 28 32 37 39 41 45 49 52 55
70 68 72 79 88 82 66 51 40 24 16 15 15 20 39 46 52 56 59 48 52 45 35 41 44 39 37 34 29 27 26 25 25 25 24 26 27 31 34 37 39 42 46 49 53 56 60
73 72 77 85 93 75 58 45 13 11 17 19 23 20 35 44 46 65 62 56 47 43 40 40 42 40 38 36 32 29 28 27 27 27 27 29 30 32 36 38 43 48 51 54 57 58 62
79 76 81 89 94 70 53 25 7 6 11 20 14 17 24 43 44 65 61 52 48 46 41 33 35 39 36 34 34 32 31 29 28 28 27 30 33 36 37 41 45 48 52 54 56 56 57
81 79 84 92 91 64 46 5 5 7 13 20 19 17 13 34 49 72 59 55 52 52 45 29 31 34 35 33 32 29 29 27 27 29 31 34 32 32 37 41 46 47 43 43 45 50 47
82 81 85 92 90 61 41 5 7 2 11 16 25 13 14 36 48 65 51 54 46 43 37 35 34 31 30 35 30 26 25 27 31 33 32 29 29 31 36 37 39 41 42 41 46 46 46
83 82 86 92 86 57 37 9 9 5 2 14 11 8 19 38 56 63 54 45 43 37 36 35 31 30 26 28 29 28 28 29 27 25 24 26 30 28 29 33 37 40 39 41 41 46 49
83 82 85 92 76 53 31 18 18 11 6 11 4 2 20 50 67 50 41 38 40 36 38 36 33 31 29 28 28 28 27 23 22 21 22 26 26 22 25 30 34 35 34 34 41 46 53
82 83 83 89 61 48 26 15 9 12 16 15 11 9 35 61 48 48 38 37 35 34 26 26 31 37 31 29 30 30 25 18 18 18 21 25 21 21 21 22 27 32 32 35 42 41 43
79 83 81 86 52 40 32 7 8 15 18 16 18 12 41 51 42 45 37 28 27 33 25 30 30 35 33 32 30 23 19 18 17 17 19 19 18 20 15 19 24 23 26 30 28 32 29
76 81 79 83 54 32 25 14 20 26 26 16 17 16 42 45 33 35 34 35 31 31 28 29 33 36 39 36 29 21 20 18 12 18 14 14 17 15 15 19 24 26 27 24 24 25 18
73 78 76 81 57 24 18 20 28 23 20 16 11 29 51 31 34 28 32 31 28 30 28 28 31 34 33 30 23 20 19 13 16 15 10 10 5 6 13 18 21 24 22 23 25 17 15
69 75 73 77 57 22 15 24 18 18 20 12 19 45 29 36 27 23 27 30 29 28 26 27 31 30 26 20 20 17 16 13 15 9 6 3 3 5 10 14 17 17 14 19 19 16 13
66 71 71 72 60 17 12 16 15 16 20 15 29 34 29 23 25 19 22 24 21 20 19 24 26 20 17 15 18 18 14 15 12 7 3 4 1 1 6 11 16 16 16 12 11 11 11
61 67 69 66 61 17 3 7 14 12 10 13 30 35 25 24 24 26 26 21 16 16 17 17 13 14 15 16 17 18 16 14 12 7 1 3 3 6 9 8 16 17 13 11 11 10 6
57 63 65 61 59 24 5 1 8 9 8 8 19 24 22 19 17 16 16 18 19 18 17 17 15 15 15 16 17 15 15 15 12 8 4 1 3 10 13 11 12 11 12 12 11 14 6
53 59 61 58 57 33 8 10 8 8 6 7 18 25 21 17 16 18 23 24 24 21 19 18 15 13 14 16 16 13 16 17 14 9 6 3 1 4 4 7 9 8 13 14 17 16 13
50 55 57 57 51 46 13 15 18 14 12 13 16 25 21 18 19 22 17 21 24 22 19 15 8 11 11 14 16 15 19 21 19 13 10 6 6 2 1 1 3 5 7 8 9 14 13
48 52 54 54 51 49 33 21 24 22 22 14 16 25 22 21 20 18 18 18 21 22 21 16 11 9 8 11 15 18 21 23 24 17 11 8 6 4 3 3 4 3 2 5 5 6 7
46 49 52 53 51 49 51 20 33 35 32 27 23 19 23 25 19 21 19 16 18 22 19 16 12 9 8 9 10 21 21 25 27 23 15 12 11 9 7 7 7 6 6 7 8 5 2
Wind_Direction
332 331 327 322 318 313 309 306 303 296 292 288 283 277 265 263 260 250 252 246 249 246 245 243 244 246 243 239 232 231 231 231 234 231 234 233 232 237 236 238 243 247 245 242 239 237 232
326 326 324 320 314 308 302 294 291 290 287 281 278 274 268 261 258 256 250 248 247 246 242 243 243 244 241 238 231 228 228 228 230 231 231 230 229 232 233 233 235 240 239 240 237 236 231
326 326 322 319 314 310 304 297 289 283 279 280 275 271 265 261 255 254 251 246 240 242 239 239 241 240 239 237 229 225 223 225 225 226 226 227 229 228 228 229 234 237 241 242 240 236 237
327 325 322 320 316 310 305 301 295 288 282 278 274 270 263 254 250 248 248 240 239 238 236 235 237 234 237 236 228 220 220 220 219 220 223 227 228 228 226 228 230 234 239 241 242 240 239
330 324 319 316 312 306 304 300 296 290 284 278 273 265 262 249 242 240 239 235 239 233 232 230 233 230 232 233 227 218 217 219 217 218 221 224 224 225 226 228 231 233 238 242 244 247 248
333 327 322 318 313 309 306 301 297 294 294 294 285 268 258 243 232 231 227 224 230 227 229 223 226 226 224 227 222 215 214 216 217 219 218 221 223 225 230 230 234 239 245 249 253 253 253
336 332 326 320 315 311 309 307 305 304 300 289 277 266 249 234 224 218 219 221 220 223 227 221 220 220 217 218 215 209 207 209 211 214 215 216 218 224 230 237 241 247 250 254 257 259 258
338 334 329 324 319 317 315 316 310 304 300 292 280 263 239 227 217 210 207 216 214 218 220 221 215 215 215 214 212 207 204 205 207 209 212 218 223 230 238 244 250 255 259 262 262 262 261
340 336 332 328 326 324 325 317 311 310 302 291 277 252 225 220 214 204 204 209 206 222 222 219 215 210 211 213 211 209 207 207 210 217 222 226 234 243 252 258 263 267 269 269 269 269 268
341 338 336 332 331 331 326 321 318 310 306 303 270 238 215 215 210 204 195 206 193 206 226 222 217 212 208 211 213 212 214 216 222 229 237 243 250 257 264 270 272 272 271 271 272 272 271
343 341 338 335 333 337 331 326 320 330 352 10 356 248 213 210 205 194 182 192 197 198 221 218 217 211 210 211 212 215 219 222 229 238 245 255 261 267 269 270 274 277 277 277 277 276 274
346 342 340 337 340 339 335 330 340 29 11 8 350 324 221 206 196 178 180 188 193 202 214 215 217 216 214 214 214 219 223 229 238 245 252 260 264 268 271 277 280 280 279 279 276 274 272
349 345 341 341 345 340 337 335 88 55 12 7 305 326 235 205 186 185 182 183 191 204 210 209 210 215 215 216 217 221 229 235 243 250 252 258 265 271 278 279 279 281 282 282 279 279 279
350 346 344 345 347 343 341 316 130 40 33 20 348 312 238 194 183 177 176 174 189 203 202 207 206 210 214 216 220 222 228 234 241 248 254 259 270 276 278 281 284 285 285 285 285 285 290
350 348 346 348 347 346 340 239 137 55 32 21 358 350 172 180 177 182 175 188 189 195 202 210 210 208 211 216 219 223 229 235 242 249 259 268 269 275 283 288 289 289 291 291 293 291 294
351 350 348 350 348 352 340 193 117 130 17 12 346 25 152 169 167 168 182 185 188 197 192 200 194 198 202 207 214 220 226 236 245 252 260 268 274 286 290 290 293 294 300 301 302 299 298
353 352 351 351 351 353 342 162 76 96 105 21 14 109 166 166 162 164 170 179 187 192 197 209 209 199 204 208 213 222 228 238 248 254 264 273 274 280 285 285 293 303 311 307 300 295 293
354 354 353 354 353 358 1 148 66 103 60 83 71 128 167 170 158 162 177 185 182 191 186 194 196 201 210 215 223 233 240 243 249 260 277 273 277 290 293 291 296 306 313 308 306 310 294
354 355 355 355 353 2 28 116 43 84 106 98 76 150 171 164 161 169 173 185 188 198 204 204 200 201 207 219 228 233 237 242 253 277 270 274 287 282 301 300 297 313 326 316 300 307 304
355 356 356 356 355 356 17 67 91 107 108 94 96 155 173 167 160 174 175 177 177 176 184 198 205 208 214 223 227 233 236 243 267 261 260 279 277 305 318 322 319 317 315 316 312 310 301
355 357 358 357 359 353 36 97 98 98 76 81 120 156 159 157 159 155 168 181 186 192 201 210 213 216 221 222 227 223 232 240 253 250 280 287 288 332 326 326 321 316 311 314 315 300 305
355 357 359 359 1 3 88 104 87 81 76 63 118 155 158 174 166 156 172 170 178 192 200 204 210 216 217 214 207 217 231 246 231 263 279 299 315 341 4 8 355 343 330 327 326 301 290
356 358 0 1 3 17 110 118 87 96 64 84 140 150 144 156 184 177 176 181 190 204 208 206 208 210 208 195 199 220 230 230 228 254 268 319 314 340 36 9 2 358 342 315 325 342 316
356 358 360 2 4 10 133 79 122 100 136 138 158 162 157 145 153 175 183 186 192 187 192 197 192 194 198 192 203 223 235 226 215 211 199 38 52 75 55 25 23 14 358 348 334 310 327
354 357 359 2 6 1 249 186 156 108 153 185 171 170 162 147 151 154 168 174 174 170 168 165 176 187 193 192 209 225 235 201 196 200 217 54 114 75 55 52 44 39 39 31 22 28 29
353 355 357 360 5 359 328 243 199 215 213 206 194 184 165 163 169 162 160 165 163 161 162 171 175 177 183 194 206 226 218 198 202 210 217 174 115 70 45 74 81 50 53 55 49 58 58
350 352 354 356 358 7 314 250 248 230 211 198 199 179 178 167 166 161 165 169 165 167 164 149 162 176 182 196 212 220 213 202 200 214 222 183 169 208 97 347 35 56 68 35 24 57 57
347 348 350 352 352 355 357 247 241 244 236 220 183 192 189 186 163 169 167 171 165 170 171 176 176 189 197 213 222 217 217 209 202 215 224 223 225 225 237 204 235 257 257 346 31 74 64
345 345 346 348 349 346 353 320 231 236 232 225 209 202 208 205 209 201 192 180 181 184 179 185 195 212 219 210 239 219 220 219 211 216 222 229 241 257 243 245 253 271 296 295 311 323 332
Height
5702 5698 5694 5691 5687 5683 5679 5675 5671 5669 5666 5664 5663 5662 5661 5662 5662 5664 5667 5670 5672 5675 5678 5682 5684 5687 5692 5696 5702 5705 5709 5715 5721 5726 5731 5734 5738 5742 5744 5747 5750 5752 5756 5756 5757 5761 5764
5696 5691 5687 5683 5678 5674 5670 5666 5663 5659 5655 5654 5651 5651 5651 5652 5653 5654 5656 5659 5663 5666 5670 5673 5677 5680 5685 5689 5692 5696 5701 5706 5712 5718 5723 5728 5730 5734 5738 5740 5743 5745 5748 5750 5752 5754 5755
5691 5686 5679 5673 5667 5662 5657 5653 5650 5647 5644 5641 5639 5638 5639 5641 5642 5644 5645 5651 5654 5659 5662 5666 5670 5674 5677 5681 5685 5689 5693 5698 5704 5710 5715 5720 5723 5726 5730 5732 5736 5738 5740 5743 5745 5747 5748
5686 5680 5672 5664 5656 5649 5643 5638 5634 5631 5628 5627 5624 5624 5624 5627 5630 5633 5636 5640 5645 5649 5654 5659 5665 5668 5671 5675 5678 5683 5686 5691 5697 5703 5708 5712 5716 5719 5722 5725 5727 5730 5733 5735 5737 5739 5741
5681 5673 5665 5656 5647 5637 5630 5623 5616 5609 5605 5604 5602 5603 5606 5610 5615 5619 5626 5631 5635 5641 5647 5654 5659 5661 5666 5669 5673 5677 5680 5685 5691 5696 5701 5705 5709 5713 5715 5717 5721 5723 5726 5727 5728 5730 5733
5674 5665 5655 5645 5635 5626 5616 5607 5597 5587 5580 5572 5572 5576 5580 5588 5597 5604 5613 5620 5624 5632 5639 5647 5651 5656 5661 5664 5667 5672 5675 5680 5684 5690 5694 5700 5703 5707 5708 5711 5714 5716 5718 5719 5720 5723 5723
5665 5655 5645 5635 5624 5613 5601 5585 5571 5559 5549 5540 5540 5546 5554 5564 5578 5588 5599 5606 5613 5624 5633 5638 5644 5648 5653 5658 5662 5667 5671 5675 5679 5684 5689 5693 5699 5700 5702 5705 5707 5708 5709 5710 5711 5712 5714
5655 5644 5633 5622 5610 5597 5582 5566 5546 5529 5519 5511 5511 5517 5529 5540 5554 5571 5582 5592 5608 5616 5621 5628 5635 5641 5648 5653 5658 5663 5667 5672 5675 5680 5684 5689 5693 5695 5697 5699 5699 5700 5701 5701 5701 5701 5703
5645 5632 5619 5606 5593 5576 5558 5535 5519 5507 5498 5492 5490 5496 5506 5519 5535 5555 5568 5583 5598 5606 5613 5621 5627 5634 5642 5648 5653 5658 5664 5668 5672 5676 5679 5683 5688 5689 5689 5691 5692 5692 5692 5692 5691 5690 5691
5634 5620 5606 5591 5575 5556 5532 5515 5502 5492 5485 5482 5481 5483 5491 5502 5521 5539 5559 5574 5587 5597 5607 5615 5621 5629 5636 5643 5648 5654 5659 5666 5669 5672 5675 5678 5680 5681 5682 5683 5683 5683 5683 5682 5680 5679 5678
5625 5610 5595 5578 5559 5536 5515 5502 5493 5487 5482 5479 5479 5477 5482 5493 5506 5530 5552 5565 5576 5591 5595 5604 5612 5622 5630 5637 5645 5650 5655 5660 5665 5668 5672 5673 5674 5674 5674 5674 5673 5672 5671 5669 5666 5662 5658
5618 5602 5585 5566 5544 5521 5505 5495 5488 5487 5482 5478 5477 5476 5477 5484 5501 5520 5540 5557 5569 5580 5584 5595 5606 5615 5624 5632 5639 5644 5650 5655 5659 5663 5665 5666 5666 5667 5666 5665 5663 5661 5659 5654 5650 5645 5640
5612 5594 5576 5554 5531 5511 5497 5489 5485 5483 5480 5477 5474 5472 5472 5480 5499 5516 5535 5549 5563 5569 5582 5591 5601 5612 5620 5627 5634 5639 5644 5649 5653 5656 5659 5659 5659 5659 5658 5656 5654 5650 5646 5638 5631 5626 5625
5604 5587 5567 5544 5523 5504 5492 5485 5483 5481 5477 5473 5471 5466 5466 5480 5491 5510 5529 5544 5554 5564 5577 5587 5597 5605 5614 5622 5628 5635 5640 5645 5647 5649 5651 5651 5654 5653 5650 5647 5642 5636 5632 5626 5615 5611 5606
5599 5581 5561 5537 5516 5500 5488 5482 5481 5479 5476 5474 5469 5464 5464 5477 5493 5507 5526 5538 5550 5563 5577 5587 5594 5602 5610 5617 5625 5631 5636 5639 5640 5642 5644 5645 5646 5644 5641 5635 5630 5625 5621 5614 5603 5600 5588
5595 5577 5556 5534 5511 5497 5484 5480 5478 5478 5476 5474 5472 5469 5471 5481 5494 5511 5528 5539 5551 5563 5573 5581 5588 5598 5606 5613 5620 5625 5629 5632 5634 5637 5638 5638 5635 5636 5631 5626 5621 5614 5611 5604 5595 5585 5577
5592 5575 5553 5531 5509 5497 5483 5480 5480 5479 5477 5475 5474 5475 5477 5486 5500 5515 5530 5540 5551 5561 5571 5579 5587 5595 5603 5610 5615 5619 5623 5627 5630 5631 5631 5629 5628 5630 5626 5619 5614 5607 5601 5593 5584 5578 5570
5591 5573 5553 5532 5511 5499 5487 5485 5485 5482 5479 5479 5477 5478 5481 5491 5506 5518 5530 5540 5551 5561 5570 5578 5584 5592 5599 5605 5609 5613 5618 5622 5624 5625 5624 5621 5622 5620 5617 5613 5606 5599 5592 5585 5576 5571 5562
5591 5575 5555 5536 5517 5505 5496 5494 5491 5487 5484 5483 5481 5483 5488 5498 5510 5523 5534 5544 5553 5561 5569 5576 5582 5589 5595 5599 5604 5610 5614 5617 5619 5619 5619 5617 5616 5612 5612 5608 5600 5593 5588 5579 5568 5563 5560
5593 5576 5558 5540 5522 5514 5507 5501 5496 5492 5491 5490 5490 5493 5497 5509 5520 5529 5537 5545 5553 5561 5568 5575 5580 5586 5591 5595 5602 5608 5611 5613 5615 5615 5614 5612 5610 5607 5603 5599 5592 5587 5582 5574 5565 5560 5556
5593 5577 5562 5545 5527 5518 5513 5508 5503 5502 5499 5498 5498 5500 5513 5519 5528 5534 5541 5550 5555 5563 5568 5574 5578 5582 5587 5594 5600 5604 5606 5610 5610 5611 5610 5608 5607 5604 5601 5596 5591 5585 5578 5571 5565 5559 5553
5593 5579 5564 5548 5532 5523 5519 5517 5514 5511 5508 5507 5506 5512 5521 5527 5532 5539 5547 5552 5557 5563 5568 5572 5576 5579 5586 5592 5598 5600 5602 5604 5606 5606 5606 5606 5604 5601 5598 5593 5588 5581 5575 5570 5564 5558 5553
5593 5580 5567 5553 5538 5530 5526 5524 5521 5519 5516 5514 5518 5522 5528 5533 5538 5542 5548 5553 5559 5564 5568 5571 5575 5579 5584 5590 5594 5596 5599 5601 5603 5604 5604 5602 5601 5599 5596 5593 5587 5581 5574 5570 5565 5559 5555
5595 5582 5569 5558 5545 5538 5534 5531 5529 5527 5527 5526 5527 5529 5533 5540 5543 5547 5552 5556 5560 5564 5568 5572 5575 5579 5584 5588 5591 5593 5596 5598 5600 5601 5602 5600 5599 5597 5594 5592 5585 5580 5575 5570 5564 5562 5558
5595 5584 5572 5563 5551 5542 5540 5538 5536 5535 5535 5534 5535 5536 5539 5542 5546 5549 5552 5556 5560 5564 5568 5571 5575 5579 5582 5586 5589 5591 5593 5596 5597 5598 5599 5599 5599 5595 5593 5591 5589 5584 5579 5574 5569 5565 5560
5594 5583 5574 5564 5557 5547 5544 5544 5542 5541 5541 5540 5540 5542 5545 5546 5548 5550 5553 5557 5561 5565 5568 5572 5575 5578 5581 5584 5587 5589 5590 5592 5594 5595 5596 5597 5596 5595 5594 5593 5591 5588 5584 5580 5576 5572 5567
5591 5583 5573 5565 5559 5552 5546 5546 5545 5544 5544 5543 5544 5545 5547 5548 5550 5554 5557 5558 5561 5565 5568 5572 5575 5577 5579 5582 5584 5586 5587 5590 5592 5593 5595 5594 5593 5594 5595 5594 5593 5590 5587 5585 5583 5582 5576
5587 5580 5572 5562 5556 5551 5546 5543 5542 5542 5543 5544 5544 5545 5547 5549 5552 5554 5557 5559 5562 5564 5567 5571 5573 5575 5578 5580 5581 5582 5584 5586 5589 5590 5591 5591 5591 5593 5594 5594 5594 5592 5590 5589 5587 5584 5582
5581 5574 5568 5559 5552 5545 5540 5535 5534 5536 5537 5539 5541 5544 5546 5549 5552 5554 5556 5559 5561 5564 5566 5568 5571 5573 5575 5577 5578 5579 5581 5582 5584 5586 5587 5589 5590 5591 5594 5593 5592 5592 5591 5590 5588 5587 5586